TimeCDT,TemperatureF,Dew PointF,Humidity,Sea Level PressureIn,VisibilityMPH,Wind Direction,Wind SpeedMPH,Gust SpeedMPH,PrecipitationIn,Events,Conditions,WindDirDegrees,DateUTC
12:05 AM,69.8,66.2,88,29.99,10.0,SSW,6.9,-,N/A,,Scattered Clouds,200,2013-04-29 05:05:00
12:58 AM,69.1,65.8,89,29.98,10.0,West,2.3,-,0.00,,Scattered Clouds,270,2013-04-29 05:58:00
1:58 AM,66.9,63.0,87,29.95,10.0,Calm,Calm,-,N/A,,Mostly Cloudy,0,2013-04-29 06:58:00
2:58 AM,67.8,64.0,88,29.94,10.0,North,2.3,-,N/A,,Overcast,10,2013-04-29 07:58:00
3:58 AM,66.7,64.4,92,29.94,10.0,North,3.5,-,N/A,,Overcast,360,2013-04-29 08:58:00
4:58 AM,65.3,63.0,92,29.96,10.0,NE,5.8,-,N/A,,Overcast,40,2013-04-29 09:58:00
5:58 AM,65.1,63.1,93,29.96,10.0,NE,5.8,-,N/A,,Overcast,40,2013-04-29 10:58:00
6:58 AM,65.3,63.1,93,29.98,10.0,NE,6.9,-,N/A,,Overcast,40,2013-04-29 11:58:00
7:58 AM,67.5,64.9,92,29.99,10.0,NE,8.1,-,N/A,,Partly Cloudy,40,2013-04-29 12:58:00
8:58 AM,71.8,64.9,79,29.99,10.0,NNE,8.1,-,N/A,,Scattered Clouds,20,2013-04-29 13:58:00
9:58 AM,75.0,66.2,74,29.99,10.0,ENE,5.8,-,N/A,,Clear,70,2013-04-29 14:58:00
10:43 AM,77.0,66.2,69,29.99,10.0,East,6.9,-,N/A,,Mostly Cloudy,80,2013-04-29 15:43:00
10:53 AM,75.2,66.2,73,29.99,10.0,Variable,2.3,-,N/A,,Mostly Cloudy,0,2013-04-29 15:53:00
10:58 AM,75.2,65.3,71,30.00,10.0,SSE,5.8,-,N/A,,Mostly Cloudy,160,2013-04-29 15:58:00
11:03 AM,75.2,64.4,69,29.99,10.0,SSE,6.9,-,N/A,,Mostly Cloudy,150,2013-04-29 16:03:00
11:23 AM,75.2,66.2,73,29.99,10.0,Variable,6.9,-,N/A,,Scattered Clouds,0,2013-04-29 16:23:00
11:58 AM,78.3,66.6,67,29.99,10.0,South,8.1,-,N/A,,Clear,180,2013-04-29 16:58:00
12:58 PM,78.6,66.6,66,29.98,10.0,South,6.9,-,N/A,,Clear,180,2013-04-29 17:58:00
1:58 PM,78.8,65.5,64,29.96,10.0,Variable,4.6,-,N/A,,Clear,0,2013-04-29 18:58:00
2:58 PM,79.5,65.8,63,29.93,10.0,SSW,10.4,-,N/A,,Clear,200,2013-04-29 19:58:00
3:58 PM,78.1,66.6,68,29.93,10.0,South,11.5,-,N/A,,Clear,180,2013-04-29 20:58:00
4:58 PM,76.8,65.8,69,29.92,10.0,SSE,5.8,-,N/A,Thunderstorm,Partly Cloudy,150,2013-04-29 21:58:00
5:58 PM,76.3,65.8,70,29.91,10.0,SSW,6.9,-,N/A,,Clear,210,2013-04-29 22:58:00
6:58 PM,74.7,65.5,73,29.91,10.0,SSW,6.9,-,N/A,,Clear,210,2013-04-29 23:58:00
7:58 PM,73.6,66.9,80,29.91,10.0,Calm,Calm,-,N/A,,Clear,20,2013-04-30 00:58:00
8:58 PM,72.9,66.9,82,29.92,10.0,SE,4.6,-,N/A,,Clear,140,2013-04-30 01:58:00
9:58 PM,72.1,67.1,84,29.93,10.0,SSE,3.5,-,N/A,,Clear,150,2013-04-30 02:58:00
10:58 PM,71.4,67.5,87,29.94,10.0,ESE,4.6,-,N/A,,Clear,110,2013-04-30 03:58:00
11:58 PM,72.1,67.8,86,29.94,10.0,SE,8.1,-,N/A,,Scattered Clouds,140,2013-04-30 04:58:00